STARLINK-32162 (60597 NORAD) Tracking and Keplerian Element Data

This shows tracking and keplerian element data for the satellite.

Feedback or suggestion? Click here.




ElementValue
Catalog60597
NameSTARLINK-32162
Epoch Orbit948
Epoch Day286.68133516
Epoch Year2024
RAAN170.8838
Inclination53.1595
Eccentricity7.26E-05
Argument of Perigee95.7544
Mean Anonmoly264.3544
Mean Motion15.39610948
Decay Rate4.56E-06
L11 60597U 24150Q 24286.68133516 .00000456 00000+0 21369-4 0 9993
L22 60597 53.1595 170.8838 0000726 95.7544 264.3544 15.39610948 9486



Live tracking and technical data element details for STARLINK-32162 (NORAD 60597). STARLINK-32162 can be tracked NOW for your location showing map with azimuth and elevation plus other details from your city location.







IsCatalogInMostPopularTable: catalog: 60597, numindb: 9
Update: records affected: 1



GetName: 60597 STARLINK-32162

Hit Count: updated at: Tue, 03 Dec 2024 01:59:23 GMT